一网星座-0254星 (ONEWEB-0254 )

导读 | 星芒AI

ONEWEB-0254 是 OneWeb 卫星星座计划中的一颗低轨通信卫星,旨在为全球提供高速互联网服务。该卫星采用模块化设计,搭载先进通信载荷,支持Ka波段和Ku波段传输。作为 OneWeb 扩展其全球覆盖网络的一部分,ONEWEB-0254 与其他卫星协同工作,为偏远和农村地区提供稳定、低延迟的网络连接。该卫星由阿丽亚娜航天公司制造,通过火箭发射部署至近地轨道,助力实现 OneWeb 的全球宽带接入目标。

基本信息
目录编号:
48972
目录名称:
ONEWEB-0254
国际标识:
2021-060F
轨道中心:
EARTH
卫星名称:
一网星座-0254星
卫星全名:
一网星座-0254星 (ONEWEB-0254 )
卫星状态:
在轨 (已飞行1582 天)
发射日期:
2021-07-01 UTC
国别 :
英国 (GB)
星等 :
--
轨道信息
数据来源 国际轨道数据 AOE轨道数据
星历时间 2025-10-30T07:07:17+0800
6小时前
查看轨道信息
2025-10-29T08:00:00+0800
1天前
查看轨道信息
半长轴 7575.904km 7575.9km
偏心率 0.0002227 0.0002115
轨道倾角 87.900° 87.900°
近地点辐角 91.835° 92.280°
升交点赤经 274.623° 274.815°
平近点角 268.303° 24.262°
近地点 1196.081km 1196.162km
远地点 1199.457km 1199.368km
周期 109.373分钟 109.373分钟
每日圈数 13.165916 13.165928
详细信息
平衡模式:
三轴稳定
覆盖范围:
全球
运营商:
一网卫星公司
运营商所在国:
英国
制造商(研发单位):
一网卫星公司
制造商所在国:
英国
使用方式:
暂无
卫星简介
OneWeb卫星网络由648颗重约125公斤的微型卫星组成,运行在1200公里的轨道上。 每颗卫星都能够提供至少每秒8千兆位的吞吐量,以使用其高吞吐量的Ku频段有效载荷为家庭和移动平台提供互联网接入。该卫星仍在工作。
2D轨道图
3D轨道图
轨道高度分析图
轨道倾角分析图
轨道综合分析图
查看轨道综合分析图